�������l�o���
Date,Time,MP-1(��Sv/h),MP-2(��Sv/h),MP-3(��Sv/h),MP-4(��Sv/h),MP-5(��Sv/h),MP-6(��Sv/h),MP-7(��Sv/h),MP-8(��Sv/h),����,����(m/s),���J
2017/02/04,00:00,1.071,1.812,1.180,2.052,1.425,0.559,1.026,0.953,�k,2.0,��
2017/02/04,00:10,1.072,1.809,1.178,2.052,1.428,0.560,1.026,0.951,�k,1.5,��
2017/02/04,00:20,1.069,1.808,1.181,2.048,1.425,0.559,1.026,0.953,�k,2.3,��
2017/02/04,00:30,1.069,1.810,1.180,2.050,1.427,0.561,1.025,0.950,�k,2.2,��
2017/02/04,00:40,1.070,1.809,1.179,2.050,1.427,0.559,1.026,0.951,�k,3.4,��
2017/02/04,00:50,1.071,1.812,1.181,2.051,1.425,0.559,1.025,0.949,�k,3.3,��
2017/02/04,01:00,1.072,1.809,1.178,2.050,1.425,0.559,1.025,0.953,�k�k��,3.4,��
2017/02/04,01:10,1.071,1.810,1.179,2.048,1.425,0.558,1.024,0.953,�k�k��,3.7,��
2017/02/04,01:20,1.069,1.808,1.182,2.046,1.426,0.558,1.025,0.951,�k�k��,3.8,��
2017/02/04,01:30,1.070,1.811,1.177,2.051,1.425,0.558,1.024,0.951,���k��,3.0,��
2017/02/04,01:40,1.070,1.807,1.178,2.051,1.424,0.559,1.024,0.951,���k��,3.4,��
2017/02/04,01:50,1.070,1.806,1.178,2.048,1.424,0.560,1.022,0.952,���k��,4.4,��
2017/02/04,02:00,1.070,1.813,1.180,2.051,1.427,0.557,1.023,0.952,���k��,3.7,��
2017/02/04,02:10,1.070,1.810,1.177,2.052,1.425,0.557,1.025,0.951,���k��,3.4,��
2017/02/04,02:20,1.071,1.807,1.179,2.049,1.425,0.557,1.023,0.951,��,3.5,��
2017/02/04,02:30,1.067,1.807,1.178,2.048,1.426,0.559,1.023,0.950,��,3.8,��
2017/02/04,02:40,1.070,1.807,1.177,2.050,1.424,0.559,1.022,0.951,��,4.5,��
2017/02/04,02:50,1.068,1.806,1.181,2.049,1.423,0.558,1.023,0.953,��,5.0,��
2017/02/04,03:00,1.068,1.809,1.180,2.047,1.424,0.558,1.025,0.952,��,4.5,��
2017/02/04,03:10,1.068,1.811,1.180,2.050,1.427,0.559,1.024,0.951,��,5.6,��
2017/02/04,03:20,1.071,1.808,1.180,2.047,1.424,0.559,1.024,0.951,��,5.8,��
2017/02/04,03:30,1.068,1.808,1.178,2.048,1.425,0.559,1.026,0.951,��,5.2,��
2017/02/04,03:40,1.066,1.809,1.179,2.049,1.425,0.559,1.025,0.950,��,5.1,��
2017/02/04,03:50,1.068,1.806,1.178,2.048,1.424,0.559,1.023,0.952,��,4.7,��
2017/02/04,04:00,1.068,1.809,1.179,2.049,1.426,0.560,1.023,0.952,��,4.4,��
2017/02/04,04:10,1.067,1.808,1.178,2.047,1.425,0.559,1.025,0.952,��,4.1,��
2017/02/04,04:20,1.070,1.811,1.177,2.048,1.425,0.559,1.024,0.952,��,3.4,��
2017/02/04,04:30,1.070,1.809,1.178,2.047,1.423,0.557,1.024,0.952,��,3.4,��
2017/02/04,04:40,1.070,1.806,1.179,2.047,1.424,0.559,1.025,0.951,��,4.4,��
2017/02/04,04:50,1.069,1.806,1.176,2.046,1.425,0.559,1.024,0.952,��,5.6,��
2017/02/04,05:00,1.067,1.809,1.177,2.048,1.426,0.558,1.024,0.952,���k��,5.9,��
2017/02/04,05:10,1.068,1.808,1.177,2.047,1.425,0.557,1.022,0.951,���k��,4.9,��
2017/02/04,05:20,1.070,1.807,1.178,2.048,1.424,0.558,1.023,0.952,��,5.1,��
2017/02/04,05:30,1.069,1.806,1.176,2.049,1.421,0.558,1.023,0.950,��,4.9,��
2017/02/04,05:40,1.070,1.806,1.177,2.046,1.424,0.559,1.023,0.949,��,4.1,��
2017/02/04,05:50,1.070,1.807,1.177,2.046,1.424,0.559,1.023,0.949,��,4.6,��
2017/02/04,06:00,1.070,1.806,1.177,2.047,1.423,0.557,1.024,0.950,���쐼,2.9,��
2017/02/04,06:10,1.068,1.808,1.176,2.046,1.423,0.558,1.024,0.952,���쐼,2.9,��
2017/02/04,06:20,1.068,1.807,1.178,2.051,1.421,0.559,1.022,0.953,���쐼,4.1,��
2017/02/04,06:30,1.070,1.804,1.173,2.046,1.422,0.557,1.023,0.950,���쐼,4.7,��
2017/02/04,06:40,1.067,1.808,1.171,2.049,1.422,0.557,1.022,0.951,���쐼,5.1,��
2017/02/04,06:50,1.069,1.808,1.174,2.049,1.421,0.558,1.023,0.950,��,5.4,��
2017/02/04,07:00,1.068,1.802,1.176,2.047,1.422,0.559,1.023,0.949,��,5.2,��
2017/02/04,07:10,1.067,1.807,1.173,2.046,1.422,0.558,1.024,0.951,��,5.0,��
2017/02/04,07:20,1.069,1.804,1.171,2.048,1.423,0.559,1.025,0.951,��,4.3,��
2017/02/04,07:30,1.069,1.806,1.171,2.050,1.421,0.559,1.025,0.949,��,1.7,��
2017/02/04,07:40,1.070,1.806,1.172,2.046,1.423,0.559,1.024,0.951,��,1.5,��
2017/02/04,07:50,1.069,1.808,1.172,2.050,1.425,0.557,1.023,0.952,��쐼,1.2,��
2017/02/04,08:00,1.071,1.809,1.173,2.047,1.421,0.560,1.025,0.950,��쐼,1.7,��
2017/02/04,08:10,1.070,1.808,1.173,2.051,1.422,0.559,1.025,0.953,�쐼,1.2,��
2017/02/04,08:20,1.070,1.810,1.175,2.051,1.424,0.558,1.025,0.951,�쐼,1.5,��
2017/02/04,08:30,1.073,1.811,1.174,2.048,1.424,0.558,1.024,0.953,�쐼,1.4,��
2017/02/04,08:40,1.072,1.811,1.175,2.050,1.424,0.559,1.025,0.951,-,CALM,��
2017/02/04,08:50,1.073,1.811,1.176,2.050,1.423,0.559,1.027,0.954,�k�k��,1.4,��
2017/02/04,09:00,1.071,1.813,1.175,2.053,1.427,0.559,1.026,0.952,�k��,1.7,��
2017/02/04,09:10,1.074,1.808,1.176,2.051,1.426,0.560,1.028,0.953,�k��,1.5,��
2017/02/04,09:20,1.071,1.812,1.178,2.054,1.428,0.559,1.026,0.953,�k��,1.5,��
2017/02/04,09:30,1.073,1.812,1.177,2.055,1.428,0.560,1.028,0.953,��,2.0,��
2017/02/04,09:40,1.074,1.812,1.180,2.051,1.426,0.560,1.027,0.951,��,2.3,��
2017/02/04,09:50,1.075,1.810,1.178,2.050,1.429,0.561,1.027,0.952,��,1.5,��
2017/02/04,10:00,1.076,1.815,1.175,2.052,1.427,0.560,1.026,0.953,�k��,0.6,��
2017/02/04,10:10,1.076,1.808,1.179,2.052,1.430,0.562,1.025,0.954,���쐼,2.3,��
2017/02/04,10:20,1.075,1.813,1.179,2.052,1.429,0.560,1.027,0.952,�k��,2.3,��
2017/02/04,10:30,1.075,1.811,1.175,2.052,1.428,0.560,1.024,0.953,�k�k��,1.7,��
2017/02/04,10:40,1.075,1.812,1.178,2.056,1.428,0.561,1.026,0.952,�쐼,2.5,��
2017/02/04,10:50,1.076,1.811,1.178,2.058,1.431,0.563,1.025,0.953,��,3.2,��
2017/02/04,11:00,1.076,1.810,1.179,2.056,1.433,0.561,1.027,0.954,���k��,4.5,��
2017/02/04,11:10,1.077,1.809,1.178,2.056,1.431,0.563,1.027,0.953,��,3.5,��
2017/02/04,11:20,1.078,1.814,1.179,2.059,1.430,0.563,1.027,0.953,���k��,3.2,��
2017/02/04,11:30,1.076,1.811,1.180,2.056,1.431,0.561,1.027,0.953,��,4.6,��
2017/02/04,11:40,1.076,1.812,1.178,2.056,1.429,0.560,1.026,0.951,��,5.0,��
2017/02/04,11:50,1.078,1.809,1.180,2.056,1.431,0.561,1.027,0.955,���k��,7.8,��
2017/02/04,12:00,1.074,1.810,1.181,2.060,1.431,0.563,1.027,0.955,�k�k��,2.6,��
2017/02/04,12:10,1.077,1.813,1.181,2.059,1.430,0.562,1.028,0.954,�k�k��,4.9,��
2017/02/04,12:20,1.077,1.809,1.181,2.058,1.432,0.561,1.027,0.953,�k��,6.0,��
2017/02/04,12:30,1.080,1.810,1.180,2.056,1.433,0.562,1.028,0.954,���k��,5.0,��
2017/02/04,12:40,1.078,1.812,1.180,2.059,1.433,0.564,1.026,0.955,���k��,3.6,��
2017/02/04,12:50,1.080,1.811,1.180,2.055,1.431,0.563,1.024,0.957,���k��,3.9,��
2017/02/04,13:00,1.081,1.814,1.180,2.059,1.433,0.563,1.027,0.956,���k��,2.6,��
2017/02/04,13:10,1.080,1.814,1.179,2.059,1.430,0.562,1.026,0.955,��,2.0,��
2017/02/04,13:20,1.081,1.818,1.181,2.060,1.431,0.561,1.028,0.954,�k�k��,1.2,��
2017/02/04,13:30,1.080,1.821,1.181,2.062,1.434,0.563,1.026,0.956,���k��,2.6,��
2017/02/04,13:40,1.079,1.820,1.181,2.060,1.438,0.564,1.026,0.956,��,2.3,��
2017/02/04,13:50,1.081,1.816,1.181,2.059,1.435,0.564,1.028,0.955,���쓌,1.4,��
2017/02/04,14:00,1.080,1.818,1.180,2.059,1.435,0.563,1.026,0.955,�k��,1.4,��
2017/02/04,14:10,1.079,1.818,1.179,2.060,1.435,0.565,1.026,0.956,���k��,0.6,��
2017/02/04,14:20,1.080,1.820,1.181,2.059,1.435,0.565,1.028,0.956,���k��,1.2,��
2017/02/04,14:30,1.083,1.819,1.181,2.060,1.436,0.563,1.027,0.954,��,2.0,��
2017/02/04,14:40,1.080,1.817,1.183,2.060,1.433,0.563,1.030,0.953,���쓌,2.6,��
2017/02/04,14:50,1.080,1.816,1.180,2.063,1.434,0.563,1.026,0.952,�쓌,1.4,��
2017/02/04,15:00,1.079,1.815,1.179,2.057,1.432,0.562,1.030,0.952,��쓌,0.9,��
2017/02/04,15:10,1.079,1.817,1.178,2.059,1.431,0.564,1.029,0.955,���쓌,2.0,��
2017/02/04,15:20,1.081,1.817,1.182,2.056,1.434,0.561,1.029,0.953,���쓌,0.8,��
2017/02/04,15:30,1.083,1.820,1.180,2.057,1.436,0.563,1.029,0.954,���k��,0.6,��
2017/02/04,15:40,1.080,1.821,1.180,2.061,1.437,0.563,1.027,0.955,��,5.4,��
2017/02/04,15:50,1.081,1.818,1.178,2.061,1.437,0.564,1.029,0.954,��,4.7,��
2017/02/04,16:00,1.081,1.818,1.181,2.059,1.436,0.562,1.030,0.955,��,4.8,��
2017/02/04,16:10,1.082,1.820,1.180,2.061,1.434,0.562,1.029,0.953,���쐼,5.2,��
2017/02/04,16:20,1.082,1.819,1.180,2.061,1.433,0.562,1.028,0.956,��,5.6,��
2017/02/04,16:30,1.079,1.820,1.183,2.058,1.432,0.564,1.028,0.954,���쐼,3.9,��
2017/02/04,16:40,1.083,1.821,1.181,2.060,1.434,0.562,1.028,0.954,���쐼,3.3,��
2017/02/04,16:50,1.082,1.819,1.180,2.059,1.431,0.564,1.029,0.955,���쐼,4.4,��
2017/02/04,17:00,1.079,1.820,1.181,2.057,1.433,0.563,1.030,0.955,���쐼,6.8,��
2017/02/04,17:10,1.081,1.816,1.178,2.057,1.433,0.561,1.030,0.956,���쐼,6.4,��
2017/02/04,17:20,1.078,1.817,1.179,2.057,1.434,0.562,1.031,0.954,���쐼,6.0,��
2017/02/04,17:30,1.080,1.817,1.180,2.057,1.437,0.562,1.029,0.955,��,6.5,��
2017/02/04,17:40,1.076,1.818,1.178,2.058,1.434,0.561,1.029,0.953,��,6.6,��
2017/02/04,17:50,1.079,1.818,1.178,2.054,1.432,0.563,1.031,0.954,���쐼,6.6,��
2017/02/04,18:00,1.077,1.817,1.179,2.057,1.432,0.561,1.030,0.952,��,7.1,��
2017/02/04,18:10,1.077,1.818,1.177,2.059,1.434,0.561,1.029,0.954,��,6.1,��
2017/02/04,18:20,1.078,1.816,1.177,2.058,1.433,0.561,1.028,0.953,��,7.6,��
2017/02/04,18:30,1.076,1.819,1.180,2.058,1.433,0.562,1.027,0.954,��,9.4,��
2017/02/04,18:40,1.077,1.816,1.179,2.057,1.433,0.562,1.027,0.953,��,8.7,��
2017/02/04,18:50,1.077,1.815,1.179,2.058,1.429,0.561,1.030,0.953,��,7.8,��
2017/02/04,19:00,1.075,1.816,1.178,2.058,1.432,0.561,1.028,0.954,��,7.1,��
2017/02/04,19:10,1.078,1.815,1.178,2.058,1.437,0.562,1.026,0.952,���쐼,6.5,��
2017/02/04,19:20,1.076,1.814,1.177,2.056,1.432,0.561,1.028,0.952,���쐼,6.1,��
2017/02/04,19:30,1.078,1.818,1.179,2.058,1.436,0.561,1.028,0.954,���쐼,5.5,��
2017/02/04,19:40,1.074,1.816,1.180,2.056,1.432,0.562,1.028,0.952,��,6.7,��
2017/02/04,19:50,1.077,1.816,1.177,2.056,1.436,0.560,1.028,0.953,���쐼,6.2,��
2017/02/04,20:00,1.077,1.815,1.177,2.059,1.434,0.562,1.029,0.952,��,7.3,��
2017/02/04,20:10,1.071,1.813,1.177,2.059,1.432,0.561,1.027,0.952,��,8.5,��
2017/02/04,20:20,1.075,1.814,1.178,2.056,1.431,0.561,1.027,0.953,��,8.1,��
2017/02/04,20:30,1.076,1.812,1.176,2.057,1.436,0.561,1.029,0.954,��,9.3,��
2017/02/04,20:40,1.075,1.817,1.176,2.060,1.433,0.561,1.028,0.953,��,7.0,��
2017/02/04,20:50,1.075,1.816,1.177,2.059,1.432,0.562,1.028,0.953,��,5.5,��
2017/02/04,21:00,1.075,1.818,1.179,2.056,1.432,0.562,1.027,0.954,��,5.5,��
2017/02/04,21:10,1.076,1.812,1.178,2.059,1.434,0.559,1.026,0.952,��,5.7,��
2017/02/04,21:20,1.077,1.816,1.178,2.056,1.433,0.560,1.027,0.953,���쐼,5.4,��
2017/02/04,21:30,1.077,1.814,1.176,2.059,1.432,0.559,1.028,0.954,���쐼,4.1,��
2017/02/04,21:40,1.078,1.814,1.176,2.056,1.433,0.562,1.027,0.953,��,3.9,��
2017/02/04,21:50,1.075,1.813,1.176,2.059,1.432,0.558,1.029,0.953,���쐼,4.8,��
2017/02/04,22:00,1.076,1.816,1.177,2.054,1.432,0.562,1.028,0.953,���쐼,5.3,��
2017/02/04,22:10,1.074,1.814,1.179,2.056,1.431,0.561,1.029,0.953,��,6.2,��
2017/02/04,22:20,1.075,1.814,1.178,2.057,1.434,0.561,1.029,0.955,��,6.7,��
2017/02/04,22:30,1.075,1.814,1.178,2.058,1.431,0.560,1.026,0.953,��,5.4,��
2017/02/04,22:40,1.073,1.809,1.179,2.056,1.431,0.562,1.027,0.954,���쐼,5.0,��
2017/02/04,22:50,1.077,1.813,1.174,2.053,1.430,0.560,1.027,0.953,���쐼,5.0,��
2017/02/04,23:00,1.073,1.817,1.177,2.056,1.434,0.562,1.027,0.954,���쐼,5.5,��
2017/02/04,23:10,1.077,1.814,1.175,2.055,1.433,0.562,1.026,0.952,��,4.9,��
2017/02/04,23:20,1.074,1.813,1.176,2.053,1.432,0.561,1.027,0.953,��,6.1,��
2017/02/04,23:30,1.075,1.813,1.176,2.054,1.428,0.561,1.027,0.954,��,6.5,��
2017/02/04,23:40,1.074,1.814,1.178,2.056,1.432,0.562,1.028,0.952,���쐼,6.0,��
2017/02/04,23:50,1.075,1.816,1.175,2.057,1.430,0.561,1.026,0.953,��,6.6,��
